This demonstration page uses our WeatherBlox Daily Observations layout. Learn more.

39.29038, -76.61219

Hourly Observations for November 15, 2019

Temp ( °F °C ) Dew Point ( °F °C ) Humidity (%) Winds ( mph kmh ) Pressure ( in mb ) Visibility ( mi km ) Precip ( " mm )
12:54 am 00:54 undefined 37 2.8 23 -5 57 57 undefined N/A 30.29 1026 N/A 0 0
1:54 am 01:54 undefined 37 2.8 23 -5 57 57 undefined N/A 30.28 1025 N/A 0 0
2:54 am 02:54 undefined 37 2.8 22 -5.6 54 54 undefined N/A 30.27 1025 N/A 0 0
3:54 am 03:54 undefined 36 2.2 21 -6.1 55 55 undefined N/A 30.27 1025 N/A 0 0
4:54 am 04:54 undefined 35 1.7 23 -5 61 61 undefined N/A 30.27 1025 N/A 0 0
5:54 am 05:54 undefined 36 2.2 23 -5 59 59 undefined N/A 30.27 1025 N/A 0 0
6:54 am 06:54 undefined 36 2.2 24 -4.4 62 62 undefined N/A 30.28 1025 N/A 0 0
7:54 am 07:54 undefined 37 2.8 23 -5 57 57 undefined N/A 30.29 1026 N/A 0 0
8:54 am 08:54 undefined 43 6.1 25 -3.9 49 49 undefined N/A 30.29 1026 N/A 0 0
9:54 am 09:54 undefined 51 10.6 25 -3.9 36 36 undefined N/A 30.29 1026 N/A 0 0
10:54 am 10:54 undefined 50 10 23 -5 35 35 undefined N/A 30.27 1025 N/A 0 0
11:54 am 11:54 undefined 52 11.1 25 -3.9 35 35 undefined N/A 30.24 1024 N/A 0 0
12:54 pm 12:54 undefined 53 11.7 24 -4.4 32 32 undefined N/A 30.21 1023 N/A 0 0
1:54 pm 13:54 undefined 53 11.7 24 -4.4 32 32 undefined N/A 30.19 1022 N/A 0 0
2:54 pm 14:54 undefined 54 12.2 24 -4.4 31 31 undefined N/A 30.19 1022 N/A 0 0
3:54 pm 15:54 undefined 54 12.2 24 -4.4 31 31 undefined N/A 30.18 1022 N/A 0 0
4:54 pm 16:54 undefined 52 11.1 23 -5 32 32 undefined N/A 30.19 1022 N/A 0 0
5:54 pm 17:54 undefined 51 10.6 24 -4.4 35 35 undefined N/A 30.19 1022 N/A 0 0
6:54 pm 18:54 undefined 51 10.6 24 -4.4 35 35 undefined N/A 30.2 1023 N/A 0 0
7:54 pm 19:54 undefined 49 9.4 26 -3.3 41 41 undefined N/A 30.21 1023 N/A 0 0
8:54 pm 20:54 undefined 49 9.4 25 -3.9 39 39 undefined N/A 30.22 1023 N/A 0 0
9:54 pm 21:54 undefined 48 8.9 25 -3.9 41 41 undefined N/A 30.22 1024 N/A 0 0
10:54 pm 22:54 undefined 46 7.8 25 -3.9 44 44 undefined N/A 30.23 1024 N/A 0 0
11:54 pm 23:54 undefined 44 6.7 25 -3.9 47 47 undefined N/A 30.24 1024 N/A 0 0

Powered by AerisWeather